Погода Зея

Погода Зея : погода сейчас, прогноз погоды и архив. Всё, что Вы хотите узнать о погоде Зея!

Хотите узнать прогноз погоды Зея? Тогда Вам сюда: Погода Зея

Поиск расширенной информации на нашем сайте:

Другие новости

Новости СМИ2

Главная страница сайта

Новости сайта

03.07.2017

Напоминаем, что на нашем специализированном сайте Метеоцентр.Азия вы можете получить высокодетализированные автоматические прогнозы погоды по пунктам России, СНГ и мира в авиационном формате (включающие направление и скорость ветра, видимость, явления погоды, количество и форму облачности, нижнюю и верхнюю границу облачности).


Погода Зея - сегодня

Время (UTC), дата Ветер
(°,м/с) 
Видим.   Явления Облачность Т
(°С)
Тd
(°С)
f(%) Тe
(°С)
Pmin
(гПа)
dP
(гПа)
Po
(мм)
O2
(г/м3)
Тmin Tmax R s Состояние
почвы
06 17.02.18 070 (В) 20000 м    ясно 
-10.6 -25 30 -10  1017.6  -0.3  741  312           
09 17.02.18 тихо ()   20000 м    ясно 
-13.9 -26.3 34 -14  1019.1  1.1  741  316           
12 17.02.18 тихо ()   20000 м    ясно 
-21.1 -26.3 63 -21  1020.9  0.9  742  326    -10.5       
15 17.02.18 тихо ()   20000 м  туман на расстоянии  ясно 
-23.7 -26.8 76 -24  1021.6  0.4  742  329           
18 17.02.18 тихо ()   2000 м  дымка  ясно 
-25.1 -28.1 76 -25  1021.9  0.1  742  331           
21 17.02.18 тихо ()   4000 м  дымка  ясно 
-25.6 -29 73 -26  1021.6  -0.4  742  332           
00 18.02.18 тихо ()   20000 м  туман на расстоянии  8/0 верхняя 
[Ci sp]
-26.3 -29.6 74 -26  1022.2  -0.5  743  333  -27.8      равномерный
сухой снег
100% 
03 18.02.18 тихо ()   20000 м    3/0 верхняя 
[Ci fib]
-15.7 -21 64 -16  1019.7  -1.1  742  319           
06 18.02.18 250 (З) 20000 м    10/0 верхняя 
[Ci sp]
-10.9 -23.6 34 -11  1017.3  -1.8  740  312           
09 18.02.18 360 (С) 20000 м    10/0 верхняя 
[Cs]
-12.5 -24.3 37 -12  1017.8  0.3  741  314           
15 18.02.18 010 (С) 20000 м    10/0 верхняя 
[Ci sp]
-15.6 -24.8 45 -18  1017.8  -0.7  740  318           
18 18.02.18 360 (С) 20000 м    4/0 верхняя 
[Ci sp]
-17.2 -25.9 47 -20  1017.7  -0.3  740  320           
21 18.02.18 320 (СЗ) 20000 м    ясно 
-21 -27.3 57 -21  1017.4  -0.7  740  325           
00 19.02.18 360 (С) 20000 м    3/0 средняя, верхняя 
[Ac lent|Ci sp]
-19.1 -28.1 45 -22  1017.1  -0.1  739  322  -21.8      равномерный
сухой снег
100% 
03 19.02.18 360 (С) 20000 м    10/0 верхняя 
[Cs]
-16 -26.7 39 -18  1016.6  -0.1  739  318           
06 19.02.18 350 (С) 20000 м    10/0 верхняя 
[Cs]
-14.6 -26.2 37 -17  1016.3  -0.1  739  316           
09 19.02.18 020 (С) 20000 м    6/0 верхняя 
[Ci sp]
-16.1 -28 35 -16  1017.7  1.2  740  319           
15 19.02.18 340 (С) 20000 м    ясно 
-19.2 -31 34 -19  1017.6  -0.8  740  322           
18 19.02.18 270 (З) 20000 м    8/0 верхняя 
[Ci sp]
-19.8 -30.2 39 -20  1017.6  -0.1  740  323           
21 19.02.18 020 (С) 20000 м    ясно 
-18.9 -29.8 38 -23  1017  -0.5  739  322           
03 20.02.18 360 (С) 20000 м    ясно 
-14.1 -28.2 29 -16  1016.5  -0.2  740  316           
06 20.02.18 020 (С) 20000 м    ясно 
-12.5 -28.5 25 -15  1015.1  -1.3  739  314           
09 20.02.18 340 (С) 20000 м    ясно 
-15 -28 32 -15  1016.4  739  317           
12 20.02.18 тихо ()   20000 м    ясно 
-20.9 -28.1 52 -21  1017.6  0.5  740  324    -12.5       
15 20.02.18 тихо ()   10 км  туман на расстоянии  ясно 
-24.4 -28.4 69 -24  1017.2  -0.9  739  329           
Время (UTC), дата Ветер
(°,м/с) 
Видим.   Явления Облачность Т
(°С)
Тd
(°С)
f(%) Тe
(°С)
Pmin
(гПа)
dP
(гПа)
Po
(мм)
O2
(г/м3)
Тmin Tmax R s Состояние
почвы

Для получения пояснительной информации подведите курсор к названию столбца.

ПОГОДА Зея - архив

Всё, что Вы хотите узнать о погоде Зея - удобно и подробно!

Выберите нужную дату (начиная с 1 января 2015* года) и нажмите кнопку "Найти".
Будут отображены архивные сводки погоды по пункту Зея, начиная с указанной даты.


Отображать данные в формате CSV (для использования в таблицах Excel)


Внимание! Наш архив погоды предназначен исключительно для личного некоммерческого использования в познавательных целях. Если Вам необходимы официальные справки о состоянии погоды (для производственных, юридических, коммерческих и т.п. целей), обращайтесь в органы Росгидромета.

*Примечание: данная дата относится к архиву по метеостанциям СССР (Россия, СНГ, Балтия).
Архив по метеостанциям Зарубежной Европы и Азии (кроме Китая) хранится 10 дней, по другим регионам земного шара (Китай, Африка, Америка, Австралия, Океания) - 1 день.

Зея - район местоположения метеостанции


Название, широта, долгота, высота метеостанции:
Зея 53.7°ш. 127.3°д. 229 м над ур. моря [Российская Федерация]

Дополнительная информация

В oтличие oт бoльшинства пoгoдных сайтoв мы публикуем пoдрoбную метеoинфoрмацию в детальнoм прoфессиoнальнoм фoрмате.

Характеристики температуры и влажнoсти вoздуха измеряются на высoте 2 м в тени вдали oт зданий и деревьев.
Скoрoсть ветра измеряется на высoте 10 м (на урoвне рoста челoвека скoрoсть ветра ниже в 1.5-2 раза). Если метеoстанция нахoдится в гoрoде или в лесу, тo скoрoсть ветра занижена на 2-4 м/с пo сравнению с oткрытым местoм. Скoрoсть ветра над акватoриями крупных рек и oзёр, а также на вершинах хoлмoв на 2-5 м/с выше, чем в oбычных услoвиях.
Атмoсфернoе давление в разных тoчках местнoсти мoжет значительнo oтличаться oт давления на метеoстанции, в зависимoсти oт услoвий рельефа (при пoдъёме на 10 м давление пoнижается примернo на 1 мм рт.ст.).